Location: Arras
(50.2918°N, 2.7803°E)
Time: 00:23:19
(UTC+00:00)

Daily predictions for brighter satellites

Satellite Brightness Start Highest point End
(mag) Time Altitude Azimuth Time Altitude Azimuth Time Altitude Azimuth
Cosmos 1943 Rocket 4.3 03:12:50 21° NE 03:12:50 21° NE 03:14:54 10° NE
CENTAUR R/B 3.1 03:44:24 56° ENE 03:44:24 56° ENE 03:50:11 10° NE
Cosmos 2278 Rocket 4.4 03:51:48 16° NNE 03:51:48 16° NNE 03:52:55 10° NNE
NOSS 3-2 (A) 3.9 04:04:16 53° NNE 04:04:16 53° NNE 04:09:28 10° NE
NOSS 3-2 (C) 3.4 04:12:49 76° ENE 04:12:49 76° ENE 04:18:59 10° NE
Meteor 2-3 Rocket 4.3 04:20:25 48° NNE 04:20:25 48° NNE 04:24:30 10° NNE
BREEZE-M DEB (TANK) 4.1 04:21:03 38° S 04:21:03 38° S 04:29:05 10° SE
Envisat 4.4 04:18:32 10° NNE 04:23:16 38° E 04:27:59 10° SSE
Cosmos 968 Rocket 4.1 04:27:18 46° NNE 04:27:18 46° NNE 04:30:53 10° NNE
Cosmos 2297 Rocket 4.4 04:25:42 13° N 04:28:33 18° NE 04:32:24 10° ENE
Cosmos 2098 Rocket 3.7 04:32:19 28° SSE 04:34:31 59° E 04:39:50 10° NNE
Cosmos 2369 Rocket 2.2 04:34:16 53° S 04:35:37 77° ESE 04:41:15 10° NNE
Cosmos 2344 3.5 04:34:44 57° WNW 04:35:48 62° NW 04:43:58 10° NE
SL-19 R/B 4.1 04:34:40 10° SSE 04:40:14 85° WSW 04:41:27 57° NNW
USA 238 DEB 3.5 04:39:34 63° W 04:40:24 70° NW 04:47:23 10° NE
USA 238 3.5 04:39:38 63° W 04:40:30 71° NW 04:47:29 10° NE
Cosmos 2279 Rocket 4.0 04:34:51 10° N 04:41:05 76° E 04:47:16 10° SSE
Cosmos 1656 Rocket 3.9 04:37:56 22° S 04:41:24 63° ESE 04:46:48 10° NE
COSMO-SKYMED 1 2.8 04:38:26 10° SSE 04:42:44 67° ENE 04:42:51 67° ENE
H-2A R/B 4.1 04:39:51 10° NNE 04:46:53 12° S 04:47:08 10° S
Meteor 1-31 Rocket 4.2 04:40:22 10° NNE 04:44:02 37° E 04:47:41 10° SSE
USA 215 3.2 04:38:18 10° ESE 04:44:51 84° NNE 04:46:50 49° NW
Cosmos 1943 Rocket 2.8 04:54:24 40° NNW 04:54:24 40° NNW 04:58:49 10° NNE
CZ-2C R/B 2.6 04:48:53 10° SSE 04:54:22 88° ENE 04:57:37 25° NNW
Kosmos-917 4.1 04:57:03 62° NNE 04:57:03 62° NNE 05:01:48 10° NE
Cosmos 1634 Rocket 4.0 04:58:14 40° NW 05:00:10 55° W 05:06:11 10° SSW
Gblst 52 Del rocket 4.4 04:59:59 50° W 05:01:43 82° N 05:08:38 10° E
Cosmos 2227 Rocket 4.2 05:00:32 11° N 05:04:40 22° NE 05:08:57 10° E
Cosmos 1862 3.5 05:07:19 58° N 05:07:19 58° N 05:10:35 10° N
SKYMED 3 4.4 05:02:31 10° S 05:06:52 73° WSW 05:07:15 67° WNW
Cosmos 1515 Rocket 3.8 05:06:34 20° N 05:09:35 68° E 05:13:53 10° SSE
Landsat 5 3.5 05:06:06 10° SSE 05:10:37 85° WSW 05:12:33 34° NNW
ADEOS 4.4 05:07:16 10° NNE 05:12:23 51° E 05:17:28 10° S
SJ 16-02 3.1 05:09:05 10° SSE 05:13:02 34° ESE 05:17:00 10° NE
Tsikada Rocket 4.4 05:16:30 38° W 05:17:01 38° WNW 05:22:54 10° N
BREEZE-M DEB (TANK) 2.7 05:16:52 61° WSW 05:17:25 81° S 05:24:34 10° E
Meteor 2-8 Rocket 4.3 05:16:59 10° NNW 05:23:06 69° W 05:29:10 10° S
COSMOS 2487 3.4 05:23:40 24° N 05:25:15 42° ENE 05:28:27 10° SE
CZ-4C R/B 2.6 05:23:31 10° S 05:26:27 71° SW 05:26:27 71° SW
SJ-12 4.0 05:25:35 10° N 05:29:39 54° WNW 05:33:41 10° SSW
SKYMED 2 3.9 05:26:46 10° S 05:30:53 42° W 05:31:28 40° WNW
Cosmos 1500 Rocket 4.5 05:27:04 10° S 05:31:24 52° E 05:35:45 10° NNE
MOS 1-B Rocket 4.4 05:25:54 10° SSW 05:31:30 38° W 05:33:51 27° NW
CZ-2C R/B 3.8 05:26:46 10° NNE 05:31:32 52° E 05:36:30 10° S
Cosmos 2180 Rocket 4.4 05:27:09 10° NNW 05:33:13 61° W 05:39:14 10° S
Cosmos 2278 Rocket 4.1 05:33:39 13° NNW 05:33:39 13° NNW 05:36:01 10° N
CENTAUR R/B 3.2 05:31:36 29° WNW 05:34:17 41° NNW 05:41:29 10° NE
FALCON 9 DEB 3.1 05:37:32 46° N 05:37:35 46° N 05:40:23 10° ENE
CZ-4B R/B 3.6 05:36:01 10° NNE 05:39:29 48° E 05:42:59 10° S
Cosmos 1503 Rocket 4.0 05:34:48 10° SW 05:40:02 63° WNW 05:45:23 10° NNE
FALCON 9 DEB 3.0 05:40:01 46° N 05:40:09 47° N 05:42:56 10° E
FALCON 9 DEB 3.0 05:40:11 47° N 05:40:21 48° N 05:43:08 10° E
Meteor 1-27 Rocket 3.7 05:34:51 10° NNW 05:40:31 80° W 05:46:16 10° S
ATLAS 5 CENTAUR R/B 2.4 05:36:56 10° SSW 05:40:38 46° SE 05:44:49 10° NE
Meteor PRIRODA 4.0 05:40:46 10° NNE 05:44:22 64° ESE 05:47:58 10° S
H-2A R/B 2.3 05:40:22 10° SSE 05:44:38 70° ENE 05:49:02 10° N
Cosmos 1777 Rocket 4.1 05:42:11 10° SSW 05:47:24 77° ESE 05:52:40 10° NNE
USA 32 4.3 05:42:40 10° N 05:47:55 74° E 05:53:10 10° SSE
Cosmos 773 Rocket 4.2 05:45:01 22° NW 05:48:10 48° WSW 05:53:07 10° S
Lacrosse 4 Rocket 3.5 05:46:38 10° NNW 05:50:06 22° NE 05:53:35 10° E
Cosmos 1515 3.7 05:49:05 10° N 05:52:54 80° E 05:56:42 10° SSE
NOSS 3-2 (A) 4.5 05:51:40 22° WNW 05:54:43 32° NNW 06:01:00 10° NE
SL-27 R/B 3.2 05:54:53 30° W 05:55:36 33° WSW 05:58:47 10° S
Cosmos 1340 Rocket 2.8 05:51:50 10° S 05:55:48 85° E 05:59:50 10° NNE
Okean 3 Rocket 4.3 05:52:23 10° SW 05:56:29 33° WNW 06:00:37 10° N
Cosmos 1766 Rocket 4.4 05:55:43 10° SW 05:59:24 27° WNW 06:03:06 10° N
Envisat 3.5 05:57:39 10° N 06:02:16 35° WNW 06:06:51 10° SW
NOSS 3-2 (C) 4.2 06:00:16 19° WNW 06:03:59 36° NNW 06:10:25 10° NE
ATLAS 3B R/B 3.1 05:57:40 10° SSW 06:04:08 66° SE 06:10:58 10° NE
DMSP B5D2-2 4.1 05:59:01 10° S 06:04:08 57° W 06:09:18 10° NNW
FALCON 9 DEB 3.1 06:03:14 29° NW 06:04:21 48° N 06:07:11 10° E
Cosmos 158 Rocket 4.0 06:04:32 10° NNW 06:09:33 67° WSW 06:14:46 10° SSE
Meteor 1-25 Rocket 4.4 06:05:15 10° S 06:10:50 77° E 06:16:25 10° NNE
Cosmos 1939 Rocket 2.8 06:09:22 10° NNE 06:13:20 86° ESE 06:17:13 10° SSW
Cosmos 2297 Rocket 2.6 06:08:05 10° NNW 06:13:45 65° ENE 06:19:22 10° SE
PSLV R/B 4.3 06:10:46 10° SSE 06:14:48 65° ENE 06:18:53 10° N
FALCON 9 DEB 3.4 06:13:35 20° WNW 06:15:39 52° N 06:18:59 10° E
H-2A R/B 4.1 06:14:48 10° NNW 06:21:57 - WSW 06:17:13 17° WNW
Cosmos 1174 3.0 06:14:33 10° SW 06:17:32 78° NW 06:20:47 10° NE
Meteor 1-31 Rocket 3.9 06:15:05 10° N 06:18:14 23° WNW 06:21:22 10° WSW
COSMO-SKYMED 1 4.1 06:16:45 10° SW 06:19:22 16° W 06:20:04 15° WNW
Cosmos 2369 Rocket 3.2 06:16:09 12° W 06:20:15 26° NW 06:24:56 10° NNE
Cosmos 1607 4.0 06:17:00 12° NW 06:22:56 72° SW 06:29:03 10° SSE
Cosmos 1656 Rocket 4.4 06:20:44 10° WSW 06:25:24 29° NW 06:30:08 10° NNE
CZ-4B R/B 1.2 06:22:28 10° S 06:25:46 79° WSW 06:29:02 10° NNW
USA 215 3.9 06:22:14 10° SSE 06:28:17 39° SW 06:34:11 11° WNW
Okean 1 3.2 06:24:38 10° NNW 06:28:36 74° W 06:32:31 10° S
Cosmos 1408 Rocket 4.5 06:28:12 10° SW 06:31:49 26° WNW 06:35:27 10° NNW
CZ-2D R/B 3.6 06:28:58 10° NNE 06:32:46 68° ESE 06:36:32 10° S
CZ-2C R/B 4.2 06:32:07 10° WSW 06:35:22 16° W 06:38:34 10° NW
Cosmos 2263 Rocket 4.0 06:31:08 10° NNW 06:35:31 23° NE 06:39:52 10° E
Meteor 1-18 Rocket 4.3 06:30:01 10° NNW 06:35:56 85° W 06:41:40 10° S
NOAA 12 4.1 06:32:11 10° N 06:37:22 58° WNW 06:42:30 10° SSW
Cosmos 1943 Rocket 3.9 06:35:57 10° WNW 06:38:42 14° NNW 06:41:41 10° N
FengYun 1-2 T 4.2 06:33:21 10° N 06:38:49 70° WNW 06:44:16 10° SSW
Nadezhda 4 Rocket 4.4 06:33:15 10° SW 06:39:01 40° WNW 06:44:55 10° N
Cosmos 2228 Rocket 3.6 06:36:53 10° NNW 06:41:06 40° W 06:45:20 10° SSW
Cosmos 1743 Rocket 4.1 06:37:29 10° SW 06:41:31 36° WNW 06:45:34 10° N
Cosmos 724 4.4 06:36:23 10° NW 06:42:20 83° NE 06:48:08 10° SE
Alouette 2 Rocket 4.4 06:41:49 10° NW 06:44:53 24° W 06:47:48 10° SSW
CORIOLIS 4.2 06:39:24 10° NNE 06:44:54 83° WNW 06:50:21 10° SSW
Lacrosse 5 4.4 06:42:08 10° S 06:46:19 26° SE 06:50:32 10° ENE
Meteor 2-4 Rocket 3.9 06:40:20 10° NNW 06:46:19 87° ENE 06:52:11 10° SSE
Cosmos 1378 3.8 06:44:40 10° N 06:48:21 56° ENE 06:52:02 10° SSE
Cosmos 2227 Rocket 2.3 06:43:54 10° NNW 06:49:36 83° ENE 06:55:16 10° SSE
SJ 16-02 2.1 06:47:42 10° WSW 06:51:37 31° WNW 06:55:34 10° N
ADEOS 4.4 06:47:13 10° N 06:51:40 29° WNW 06:56:05 10° WSW
Cosmos 1666 Rocket 3.7 06:48:09 10° S 06:52:38 90° ENE 06:57:09 10° N
Cosmos 1092 Rocket 4.2 06:50:32 10° SSW 06:56:35 49° WNW 07:02:44 10° N
Cosmos 1602 4.5 06:55:36 10° SW 06:59:01 31° WNW 07:02:28 10° N
COSMOS 2487 4.2 06:57:34 10° WNW 06:59:33 15° W 07:01:32 10° SW
ARGOS 3.9 06:55:27 10° NNE 07:00:46 58° E 07:06:03 10° S
CZ-4B DEB 4.2 06:56:00 10° NNE 07:01:29 76° WNW 07:06:55 10° SSW
Cosmos 1656 3.9 06:56:16 10° SSW 07:01:40 75° ESE 07:07:08 10° NNE
